owner,sensor,date,latitude,longitude,vertical_datum,wind_speed,wind_to_direction,wind_speed_of_gust,qcFlag 
TABS,ioos:station:wmo:42045:1,2006-10-01T00:00:00Z,26.2168,-96.4998,4.0,5.519438377,144.4384811,7.04,'11111222,11111222,11111222' 
TABS,ioos:station:wmo:42045:1,2006-10-01T00:30:00Z,26.2168,-96.4998,4.0,5.636000355,143.1507311,7.59,'11111222,11111222,11111222' 
TABS,ioos:station:wmo:42045:1,2006-10-01T01:00:00Z,26.2168,-96.4998,4.0,5.728254533,142.5902675,7.4,'11111222,11111222,11111222' 
TABS,ioos:station:wmo:42045:1,2006-10-01T01:30:00Z,26.2168,-96.4998,4.0,6.0985982,141.4578715,7.53,'11111222,11111222,11111222' 
TABS,ioos:station:wmo:42045:1,2006-10-01T02:00:00Z,26.2168,-96.4998,4.0,6.267479557,138.1693813,8.0,'11111222,11111222,11111222' 
TABS,ioos:station:wmo:42045:1,2006-10-01T02:30:00Z,26.2168,-96.4998,4.0,6.253079241,139.150549,7.81,'11111222,11111222,11111222' 
TABS,ioos:station:wmo:42045:1,2006-10-01T03:00:00Z,26.2168,-96.4998,4.0,6.098106263,143.4686442,7.76,'11111222,11111222,11111222' 
TABS,ioos:station:wmo:42045:1,2006-10-01T03:30:00Z,26.2168,-96.4998,4.0,6.512296062,139.6089539,8.23,'11111222,11111222,11111222' 
TABS,ioos:station:wmo:42045:1,2006-10-01T04:00:00Z,26.2168,-96.4998,4.0,6.312091571,143.4390228,7.78,'11111222,11111222,11111222' 
TABS,ioos:station:wmo:42045:1,2006-10-01T04:30:00Z,26.2168,-96.4998,4.0,6.543095598,156.4912252,8.59,'11111222,11111222,11111222' 
TABS,ioos:station:wmo:42045:1,2006-10-01T05:00:00Z,26.2168,-96.4998,4.0,6.586630398,151.5286655,8.23,'11111222,11111222,11111222' 
TABS,ioos:station:wmo:42045:1,2006-10-01T05:30:00Z,26.2168,-96.4998,4.0,6.52596353,156.617222,8.1,'11111222,11111222,11111222' 
TABS,ioos:station:wmo:42045:1,2006-10-01T06:00:00Z,26.2168,-96.4998,4.0,6.549541969,148.9315069,8.27,'11111222,11111222,11111222' 
TABS,ioos:station:wmo:42045:1,2006-10-01T06:30:00Z,26.2168,-96.4998,4.0,7.026841396,149.7497133,9.53,'11111222,11111222,11111222' 
TABS,ioos:station:wmo:42045:1,2006-10-01T07:00:00Z,26.2168,-96.4998,4.0,6.978688989,150.9377,8.42,'11111222,11111222,11111222' 
TABS,ioos:station:wmo:42045:1,2006-10-01T07:30:00Z,26.2168,-96.4998,4.0,7.097450246,153.8323493,8.58,'11111222,11111222,11111222' 
TABS,ioos:station:wmo:42045:1,2006-10-01T08:00:00Z,26.2168,-96.4998,4.0,7.163665263,151.57493,9.25,'11111222,11111222,11111222' 
TABS,ioos:station:wmo:42045:1,2006-10-01T08:30:00Z,26.2168,-96.4998,4.0,7.027275432,154.6385812,9.12,'11111222,11111222,11111222' 
TABS,ioos:station:wmo:42045:1,2006-10-01T09:00:00Z,26.2168,-96.4998,4.0,6.611021101,158.7138551,8.3,'11111222,11111222,11111222' 
TABS,ioos:station:wmo:42045:1,2006-10-01T09:30:00Z,26.2168,-96.4998,4.0,6.470239563,158.9881794,8.06,'11111222,11111222,11111222' 
TABS,ioos:station:wmo:42045:1,2006-10-01T10:00:00Z,26.2168,-96.4998,4.0,7.045069198,167.956603,8.48,'11111222,11111222,11111222' 
TABS,ioos:station:wmo:42045:1,2006-10-01T10:30:00Z,26.2168,-96.4998,4.0,6.444548083,168.2718409,7.9,'11111222,11111222,11111222' 
TABS,ioos:station:wmo:42045:1,2006-10-01T11:00:00Z,26.2168,-96.4998,4.0,6.440846218,159.1735108,8.22,'11111222,11111222,11111222' 
TABS,ioos:station:wmo:42045:1,2006-10-01T11:30:00Z,26.2168,-96.4998,4.0,6.692473384,154.8902792,8.33,'11111222,11111222,11111222' 
TABS,ioos:station:wmo:42045:1,2006-10-01T12:00:00Z,26.2168,-96.4998,4.0,6.978395231,160.0592385,9.08,'11111222,11111222,11111222' 
TABS,ioos:station:wmo:42045:1,2006-10-01T12:30:00Z,26.2168,-96.4998,4.0,6.551335742,167.661152,8.1,'11111222,11111222,11111222' 
TABS,ioos:station:wmo:42045:1,2006-10-01T13:00:00Z,26.2168,-96.4998,4.0,6.001216543,168.9524395,7.92,'11111222,11111222,11111222' 
TABS,ioos:station:wmo:42045:1,2006-10-01T13:30:00Z,26.2168,-96.4998,4.0,6.536765255,169.1544354,8.04,'11111222,11111222,11111222' 
TABS,ioos:station:wmo:42045:1,2006-10-01T14:00:00Z,26.2168,-96.4998,4.0,5.962591718,162.9328456,7.56,'11111222,11111222,11111222' 
TABS,ioos:station:wmo:42045:1,2006-10-01T14:30:00Z,26.2168,-96.4998,4.0,5.360643618,160.7202975,6.84,'11111222,11111222,11111222' 
TABS,ioos:station:wmo:42045:1,2006-10-01T15:00:00Z,26.2168,-96.4998,4.0,5.244206327,150.4044646,7.13,'11111222,11111222,11111222' 
TABS,ioos:station:wmo:42045:1,2006-10-01T15:30:00Z,26.2168,-96.4998,4.0,5.706356105,155.6809587,7.14,'11111222,11111222,11111222' 
TABS,ioos:station:wmo:42045:1,2006-10-01T16:00:00Z,26.2168,-96.4998,4.0,5.341647686,154.9704156,6.62,'11111222,11111222,11111222' 
TABS,ioos:station:wmo:42045:1,2006-10-01T16:30:00Z,26.2168,-96.4998,4.0,5.02003984,146.3735318,6.45,'11111222,11111222,11111222' 
TABS,ioos:station:wmo:42045:1,2006-10-01T17:00:00Z,26.2168,-96.4998,4.0,5.222508976,146.4015052,7.0,'11111222,11111222,11111222' 
TABS,ioos:station:wmo:42045:1,2006-10-01T17:30:00Z,26.2168,-96.4998,4.0,5.569524217,145.6825057,7.27,'11111222,11111222,11111222' 
TABS,ioos:station:wmo:42045:1,2006-10-01T18:00:00Z,26.2168,-96.4998,4.0,5.892749783,144.0444068,7.41,'11111222,11111222,11111222' 
TABS,ioos:station:wmo:42045:1,2006-10-01T18:30:00Z,26.2168,-96.4998,4.0,5.724071977,144.6720628,7.21,'11111222,11111222,11111222' 
TABS,ioos:station:wmo:42045:1,2006-10-01T19:00:00Z,26.2168,-96.4998,4.0,5.602365572,143.7849442,7.86,'11111222,11111222,11111222' 
TABS,ioos:station:wmo:42045:1,2006-10-01T19:30:00Z,26.2168,-96.4998,4.0,5.428609398,147.3348174,6.96,'11111222,11111222,11111222' 
TABS,ioos:station:wmo:42045:1,2006-10-01T20:00:00Z,26.2168,-96.4998,4.0,5.529927667,144.6432825,7.0,'11111222,11111222,11111222' 
TABS,ioos:station:wmo:42045:1,2006-10-01T20:30:00Z,26.2168,-96.4998,4.0,5.413501639,140.5470664,6.68,'11111222,11111222,11111222' 
TABS,ioos:station:wmo:42045:1,2006-10-01T21:00:00Z,26.2168,-96.4998,4.0,5.294317709,143.7580935,6.78,'11111222,11111222,11111222' 
TABS,ioos:station:wmo:42045:1,2006-10-01T21:30:00Z,26.2168,-96.4998,4.0,5.719090837,141.2466167,7.01,'11111222,11111222,11111222' 
TABS,ioos:station:wmo:42045:1,2006-10-01T22:00:00Z,26.2168,-96.4998,4.0,5.232399067,139.185222,6.4,'11111222,11111222,11111222' 
TABS,ioos:station:wmo:42045:1,2006-10-01T22:30:00Z,26.2168,-96.4998,4.0,5.056649088,139.4113007,6.34,'11111222,11111222,11111222' 
TABS,ioos:station:wmo:42045:1,2006-10-01T23:00:00Z,26.2168,-96.4998,4.0,4.808326112,135.0003157,6.01,'11111222,11111222,11111222' 
TABS,ioos:station:wmo:42045:1,2006-10-01T23:30:00Z,26.2168,-96.4998,4.0,5.047226961,129.9367107,6.28,'11111222,11111222,11111222' 
TABS,ioos:station:wmo:42045:1,2006-10-02T00:00:00Z,26.2168,-96.4998,4.0,5.398601671,132.9736614,6.45,'11111222,11111222,11111222' 
TABS,ioos:station:wmo:42045:1,2006-10-02T00:30:00Z,26.2168,-96.4998,4.0,5.522073886,130.9617535,6.69,'11111222,11111222,11111222' 
TABS,ioos:station:wmo:42045:1,2006-10-02T01:00:00Z,26.2168,-96.4998,4.0,5.570008977,131.2152798,6.68,'11111222,11111222,11111222' 
TABS,ioos:station:wmo:42045:1,2006-10-02T01:30:00Z,26.2168,-96.4998,4.0,5.56072837,131.573966,6.87,'11111222,11111222,11111222' 
TABS,ioos:station:wmo:42045:1,2006-10-02T02:00:00Z,26.2168,-96.4998,4.0,5.576064921,129.542775,6.78,'11111222,11111222,11111222' 
TABS,ioos:station:wmo:42045:1,2006-10-02T02:30:00Z,26.2168,-96.4998,4.0,5.515840824,129.9255972,6.86,'11111222,11111222,11111222' 
TABS,ioos:station:wmo:42045:1,2006-10-02T03:00:00Z,26.2168,-96.4998,4.0,6.112609917,133.144162,7.32,'11111222,11111222,11111222' 
TABS,ioos:station:wmo:42045:1,2006-10-02T03:30:00Z,26.2168,-96.4998,4.0,5.946805865,134.7959326,7.4,'11111222,11111222,11111222' 
TABS,ioos:station:wmo:42045:1,2006-10-02T04:00:00Z,26.2168,-96.4998,4.0,6.322309705,135.8974896,7.55,'11111222,11111222,11111222' 
TABS,ioos:station:wmo:42045:1,2006-10-02T04:30:00Z,26.2168,-96.4998,4.0,5.877227237,138.0348347,7.41,'11111222,11111222,11111222' 
TABS,ioos:station:wmo:42045:1,2006-10-02T05:00:00Z,26.2168,-96.4998,4.0,6.230770418,136.1057698,7.8,'11111222,11111222,11111222' 
TABS,ioos:station:wmo:42045:1,2006-10-02T05:30:00Z,26.2168,-96.4998,4.0,6.011031525,132.1008936,8.12,'11111222,11111222,11111222' 
TABS,ioos:station:wmo:42045:1,2006-10-02T06:00:00Z,26.2168,-96.4998,4.0,6.018413412,133.9905088,7.55,'11111222,11111222,11111222' 
TABS,ioos:station:wmo:42045:1,2006-10-02T06:30:00Z,26.2168,-96.4998,4.0,5.893742444,138.4394274,7.28,'11111222,11111222,11111222' 
TABS,ioos:station:wmo:42045:1,2006-10-02T07:00:00Z,26.2168,-96.4998,4.0,6.000749953,147.660909,7.39,'11111222,11111222,11111222' 
TABS,ioos:station:wmo:42045:1,2006-10-02T07:30:00Z,26.2168,-96.4998,4.0,6.107118797,149.2778713,7.96,'11111222,11111222,11111222' 
TABS,ioos:station:wmo:42045:1,2006-10-02T08:00:00Z,26.2168,-96.4998,4.0,5.689507887,150.0555455,7.01,'11111222,11111222,11111222' 
TABS,ioos:station:wmo:42045:1,2006-10-02T08:30:00Z,26.2168,-96.4998,4.0,5.532033984,153.4815396,6.76,'11111222,11111222,11111222' 
TABS,ioos:station:wmo:42045:1,2006-10-02T09:00:00Z,26.2168,-96.4998,4.0,5.789550932,156.2688881,7.13,'11111222,11111222,11111222' 
TABS,ioos:station:wmo:42045:1,2006-10-02T09:30:00Z,26.2168,-96.4998,4.0,6.227880859,149.9358884,7.75,'11111222,11111222,11111222' 
TABS,ioos:station:wmo:42045:1,2006-10-02T10:00:00Z,26.2168,-96.4998,4.0,5.612717702,147.8109507,6.92,'11111222,11111222,11111222' 
TABS,ioos:station:wmo:42045:1,2006-10-02T10:30:00Z,26.2168,-96.4998,4.0,5.763557929,144.4626158,7.22,'11111222,11111222,11111222' 
TABS,ioos:station:wmo:42045:1,2006-10-02T11:00:00Z,26.2168,-96.4998,4.0,5.93996633,135.545972,7.94,'11111222,11111222,11111222' 
TABS,ioos:station:wmo:42045:1,2006-10-02T11:30:00Z,26.2168,-96.4998,4.0,6.195869592,133.6924231,7.71,'11111222,11111222,11111222' 
TABS,ioos:station:wmo:42045:1,2006-10-02T12:00:00Z,26.2168,-96.4998,4.0,6.416829435,139.2343686,8.26,'11111222,11111222,11111222' 
TABS,ioos:station:wmo:42045:1,2006-10-02T12:30:00Z,26.2168,-96.4998,4.0,6.669100389,133.9675262,8.51,'11111222,11111222,11111222' 
TABS,ioos:station:wmo:42045:1,2006-10-02T13:00:00Z,26.2168,-96.4998,4.0,5.821039426,136.3228235,6.99,'11111222,11111222,11111222' 
TABS,ioos:station:wmo:42045:1,2006-10-02T13:30:00Z,26.2168,-96.4998,4.0,6.065550264,137.4724548,7.47,'11111222,11111222,11111222' 
TABS,ioos:station:wmo:42045:1,2006-10-02T14:00:00Z,26.2168,-96.4998,4.0,6.1462997,138.0338831,7.43,'11111222,11111222,11111222' 
TABS,ioos:station:wmo:42045:1,2006-10-02T14:30:00Z,26.2168,-96.4998,4.0,6.399789059,134.3039388,7.94,'11111222,11111222,11111222' 
TABS,ioos:station:wmo:42045:1,2006-10-02T15:00:00Z,26.2168,-96.4998,4.0,6.350031496,137.7448287,8.02,'11111222,11111222,11111222' 
TABS,ioos:station:wmo:42045:1,2006-10-02T15:30:00Z,26.2168,-96.4998,4.0,6.145860395,139.8843841,7.8,'11111222,11111222,11111222' 
TABS,ioos:station:wmo:42045:1,2006-10-02T16:00:00Z,26.2168,-96.4998,4.0,6.340544141,138.516855,7.89,'11111222,11111222,11111222' 
TABS,ioos:station:wmo:42045:1,2006-10-02T16:30:00Z,26.2168,-96.4998,4.0,5.925976713,134.3166292,7.37,'11111222,11111222,11111222' 
TABS,ioos:station:wmo:42045:1,2006-10-02T17:00:00Z,26.2168,-96.4998,4.0,5.271935129,132.7711409,6.69,'11111222,11111222,11111222' 
TABS,ioos:station:wmo:42045:1,2006-10-02T17:30:00Z,26.2168,-96.4998,4.0,5.83363523,134.9308665,7.17,'11111222,11111222,11111222' 
TABS,ioos:station:wmo:42045:1,2006-10-02T18:00:00Z,26.2168,-96.4998,4.0,5.411035021,133.5775791,6.67,'11111222,11111222,11111222' 
TABS,ioos:station:wmo:42045:1,2006-10-02T18:30:00Z,26.2168,-96.4998,4.0,5.091247391,135.3186216,6.56,'11111222,11111222,11111222' 
TABS,ioos:station:wmo:42045:1,2006-10-02T19:00:00Z,26.2168,-96.4998,4.0,5.240734681,133.8406432,6.52,'11111222,11111222,11111222' 
TABS,ioos:station:wmo:42045:1,2006-10-02T19:30:00Z,26.2168,-96.4998,4.0,4.755344362,131.1635809,6.13,'11111222,11111222,11111222' 
TABS,ioos:station:wmo:42045:1,2006-10-02T20:00:00Z,26.2168,-96.4998,4.0,4.594191986,127.3940351,5.77,'11111222,11111222,11111222' 
TABS,ioos:station:wmo:42045:1,2006-10-02T20:30:00Z,26.2168,-96.4998,4.0,4.337568443,121.7116926,5.32,'11111222,11111222,11111222' 
TABS,ioos:station:wmo:42045:1,2006-10-02T21:00:00Z,26.2168,-96.4998,4.0,4.524345256,122.636654,5.56,'11111222,11111222,11111222' 
TABS,ioos:station:wmo:42045:1,2006-10-02T21:30:00Z,26.2168,-96.4998,4.0,4.56605957,116.6776442,5.89,'11111222,11111222,11111222' 
TABS,ioos:station:wmo:42045:1,2006-10-02T22:00:00Z,26.2168,-96.4998,4.0,4.376871028,111.583002,5.32,'11111222,11111222,11111222' 
TABS,ioos:station:wmo:42045:1,2006-10-02T22:30:00Z,26.2168,-96.4998,4.0,4.847690172,118.9975581,6.06,'11111222,11111222,11111222' 
TABS,ioos:station:wmo:42045:1,2006-10-02T23:00:00Z,26.2168,-96.4998,4.0,4.447606098,114.721519,5.72,'11111222,11111222,11111222' 
TABS,ioos:station:wmo:42045:1,2006-10-02T23:30:00Z,26.2168,-96.4998,4.0,4.400602232,116.7400913,5.45,'11111222,11111222,11111222' 
TABS,ioos:station:wmo:42045:1,2006-10-03T00:00:00Z,26.2168,-96.4998,4.0,4.401681497,115.2846231,5.61,'11111222,11111222,11111222' 
TABS,ioos:station:wmo:42045:1,2006-10-03T00:30:00Z,26.2168,-96.4998,4.0,4.495887009,115.140439,5.62,'11111222,11111222,11111222' 
TABS,ioos:station:wmo:42045:1,2006-10-03T01:00:00Z,26.2168,-96.4998,4.0,4.505574325,114.8021486,5.75,'11111222,11111222,11111222' 
TABS,ioos:station:wmo:42045:1,2006-10-03T01:30:00Z,26.2168,-96.4998,4.0,4.663743132,119.9738045,5.99,'11111222,11111222,11111222' 
TABS,ioos:station:wmo:42045:1,2006-10-03T02:00:00Z,26.2168,-96.4998,4.0,5.131179202,98.85692611,6.55,'11111222,11111222,11111222' 
TABS,ioos:station:wmo:42045:1,2006-10-03T02:30:00Z,26.2168,-96.4998,4.0,5.479507277,99.13610669,6.56,'11111222,11111222,11111222' 
TABS,ioos:station:wmo:42045:1,2006-10-03T03:00:00Z,26.2168,-96.4998,4.0,4.947656011,117.9638505,6.65,'11111222,11111222,11111222' 
TABS,ioos:station:wmo:42045:1,2006-10-03T03:30:00Z,26.2168,-96.4998,4.0,5.03358719,118.3473664,6.27,'11111222,11111222,11111222' 
TABS,ioos:station:wmo:42045:1,2006-10-03T04:00:00Z,26.2168,-96.4998,4.0,5.678256775,127.4151199,7.32,'11111222,11111222,11111222' 
TABS,ioos:station:wmo:42045:1,2006-10-03T04:30:00Z,26.2168,-96.4998,4.0,5.246951496,129.8198803,6.67,'11111222,11111222,11111222' 
TABS,ioos:station:wmo:42045:1,2006-10-03T05:00:00Z,26.2168,-96.4998,4.0,5.558866791,130.7693147,6.75,'11111222,11111222,11111222' 
TABS,ioos:station:wmo:42045:1,2006-10-03T05:30:00Z,26.2168,-96.4998,4.0,4.944532334,138.4437528,6.33,'11111222,11111222,11111222' 
TABS,ioos:station:wmo:42045:1,2006-10-03T06:00:00Z,26.2168,-96.4998,4.0,4.073548821,134.0056995,5.49,'11111222,11111222,11111222' 
TABS,ioos:station:wmo:42045:1,2006-10-03T06:30:00Z,26.2168,-96.4998,4.0,4.499288833,139.8686367,5.87,'11111222,11111222,11111222' 
TABS,ioos:station:wmo:42045:1,2006-10-03T07:00:00Z,26.2168,-96.4998,4.0,4.302150625,142.6509488,5.37,'11111222,11111222,11111222' 
TABS,ioos:station:wmo:42045:1,2006-10-03T07:30:00Z,26.2168,-96.4998,4.0,4.786282482,143.752893,6.05,'11111222,11111222,11111222' 
TABS,ioos:station:wmo:42045:1,2006-10-03T08:00:00Z,26.2168,-96.4998,4.0,4.264000469,143.1035249,5.54,'11111222,11111222,11111222' 
TABS,ioos:station:wmo:42045:1,2006-10-03T08:30:00Z,26.2168,-96.4998,4.0,3.679252642,144.6255413,4.64,'11111222,11111222,11111222' 
TABS,ioos:station:wmo:42045:1,2006-10-03T09:00:00Z,26.2168,-96.4998,4.0,3.282879833,141.8038631,4.38,'11111222,11111222,11111222' 
TABS,ioos:station:wmo:42045:1,2006-10-03T09:30:00Z,26.2168,-96.4998,4.0,3.536382332,140.2777094,4.62,'11111222,11111222,11111222' 
TABS,ioos:station:wmo:42045:1,2006-10-03T10:00:00Z,26.2168,-96.4998,4.0,2.646601594,139.7512336,3.32,'11111222,11111222,11111222' 
TABS,ioos:station:wmo:42045:1,2006-10-03T10:30:00Z,26.2168,-96.4998,4.0,3.153299859,138.7289168,4.48,'11111222,11111222,11111222' 
TABS,ioos:station:wmo:42045:1,2006-10-03T11:00:00Z,26.2168,-96.4998,4.0,2.959087697,132.2609864,4.07,'11111222,11111222,11111222' 
TABS,ioos:station:wmo:42045:1,2006-10-03T11:30:00Z,26.2168,-96.4998,4.0,4.756732071,119.7452327,5.93,'11111222,11111222,11111222' 
TABS,ioos:station:wmo:42045:1,2006-10-03T12:00:00Z,26.2168,-96.4998,4.0,4.364916952,116.9763348,5.65,'11111222,11111222,11111222' 
TABS,ioos:station:wmo:42045:1,2006-10-03T12:30:00Z,26.2168,-96.4998,4.0,4.329445692,113.8419205,5.43,'11111222,11111222,11111222' 
TABS,ioos:station:wmo:42045:1,2006-10-03T13:00:00Z,26.2168,-96.4998,4.0,4.754461063,119.2071208,5.62,'11111222,11111222,11111222' 
TABS,ioos:station:wmo:42045:1,2006-10-03T13:30:00Z,26.2168,-96.4998,4.0,4.9916931,125.3778978,6.0,'11111222,11111222,11111222' 
TABS,ioos:station:wmo:42045:1,2006-10-03T14:00:00Z,26.2168,-96.4998,4.0,5.122675082,123.5353054,6.57,'11111222,11111222,11111222' 
TABS,ioos:station:wmo:42045:1,2006-10-03T14:30:00Z,26.2168,-96.4998,4.0,4.838646505,120.0096044,5.99,'11111222,11111222,11111222' 
TABS,ioos:station:wmo:42045:1,2006-10-03T15:00:00Z,26.2168,-96.4998,4.0,4.599228196,119.5752623,5.9,'11111222,11111222,11111222' 
TABS,ioos:station:wmo:42045:1,2006-10-03T15:30:00Z,26.2168,-96.4998,4.0,4.436947149,112.8089662,5.38,'11111222,11111222,11111222' 
TABS,ioos:station:wmo:42045:1,2006-10-03T16:00:00Z,26.2168,-96.4998,4.0,4.106044325,117.5639258,5.14,'11111222,11111222,11111222' 
TABS,ioos:station:wmo:42045:1,2006-10-03T16:30:00Z,26.2168,-96.4998,4.0,3.882911279,111.6099726,4.88,'11111222,11111222,11111222' 
TABS,ioos:station:wmo:42045:1,2006-10-03T17:00:00Z,26.2168,-96.4998,4.0,3.254059004,108.8250869,4.06,'11111222,11111222,11111222' 
TABS,ioos:station:wmo:42045:1,2006-10-03T17:30:00Z,26.2168,-96.4998,4.0,2.870435507,113.618314,3.88,'11111222,11111222,11111222' 
TABS,ioos:station:wmo:42045:1,2006-10-03T18:00:00Z,26.2168,-96.4998,4.0,3.405657058,104.9751515,4.24,'11111222,11111222,11111222' 
TABS,ioos:station:wmo:42045:1,2006-10-03T18:30:00Z,26.2168,-96.4998,4.0,3.659781414,101.985807,4.57,'11111222,11111222,11111222' 
TABS,ioos:station:wmo:42045:1,2006-10-03T19:00:00Z,26.2168,-96.4998,4.0,4.269332501,102.9950073,5.33,'11111222,11111222,11111222' 
TABS,ioos:station:wmo:42045:1,2006-10-03T19:30:00Z,26.2168,-96.4998,4.0,4.777457483,105.6657283,5.66,'11111222,11111222,11111222' 
TABS,ioos:station:wmo:42045:1,2006-10-03T20:00:00Z,26.2168,-96.4998,4.0,4.646859154,109.8781386,6.11,'11111222,11111222,11111222' 
TABS,ioos:station:wmo:42045:1,2006-10-03T20:30:00Z,26.2168,-96.4998,4.0,4.128692287,100.4666041,5.35,'11111222,11111222,11111222' 
TABS,ioos:station:wmo:42045:1,2006-10-03T21:00:00Z,26.2168,-96.4998,4.0,4.957358167,105.8028979,6.38,'11111222,11111222,11111222' 
TABS,ioos:station:wmo:42045:1,2006-10-03T21:30:00Z,26.2168,-96.4998,4.0,4.860329207,100.4317701,6.29,'11111222,11111222,11111222' 
TABS,ioos:station:wmo:42045:1,2006-10-03T22:00:00Z,26.2168,-96.4998,4.0,4.947403359,96.03365982,6.06,'11111222,11111222,11111222' 
TABS,ioos:station:wmo:42045:1,2006-10-03T22:30:00Z,26.2168,-96.4998,4.0,2.417602118,128.9562377,4.05,'11111222,11111222,11111222' 
TABS,ioos:station:wmo:42045:1,2006-10-03T23:00:00Z,26.2168,-96.4998,4.0,3.420409332,100.7846936,5.13,'11111222,11111222,11111222' 
TABS,ioos:station:wmo:42045:1,2006-10-03T23:30:00Z,26.2168,-96.4998,4.0,7.561084578,123.0178578,9.7,'11111222,11111222,11111222' 
TABS,ioos:station:wmo:42045:1,2006-10-04T00:00:00Z,26.2168,-96.4998,4.0,6.303530757,118.1102694,8.1,'11111222,11111222,11111222' 
TABS,ioos:station:wmo:42045:1,2006-10-04T00:30:00Z,26.2168,-96.4998,4.0,6.618912297,116.1782831,7.97,'11111222,11111222,11111222' 
TABS,ioos:station:wmo:42045:1,2006-10-04T01:00:00Z,26.2168,-96.4998,4.0,6.264862329,120.8229444,7.78,'11111222,11111222,11111222' 
TABS,ioos:station:wmo:42045:1,2006-10-04T01:30:00Z,26.2168,-96.4998,4.0,6.202910607,114.3755179,7.8,'11111222,11111222,11111222' 
TABS,ioos:station:wmo:42045:1,2006-10-04T02:00:00Z,26.2168,-96.4998,4.0,5.83030874,106.8502304,7.32,'11111222,11111222,11111222' 
TABS,ioos:station:wmo:42045:1,2006-10-04T02:30:00Z,26.2168,-96.4998,4.0,5.923681288,105.0688738,7.57,'11111222,11111222,11111222' 
TABS,ioos:station:wmo:42045:1,2006-10-04T03:00:00Z,26.2168,-96.4998,4.0,5.676486589,107.9565441,7.46,'11111222,11111222,11111222' 
TABS,ioos:station:wmo:42045:1,2006-10-04T03:30:00Z,26.2168,-96.4998,4.0,6.154348056,111.1448274,7.59,'11111222,11111222,11111222' 
TABS,ioos:station:wmo:42045:1,2006-10-04T04:00:00Z,26.2168,-96.4998,4.0,6.140985263,111.5938735,7.62,'11111222,11111222,11111222' 
TABS,ioos:station:wmo:42045:1,2006-10-04T04:30:00Z,26.2168,-96.4998,4.0,5.746042116,113.4870042,7.34,'11111222,11111222,11111222' 
TABS,ioos:station:wmo:42045:1,2006-10-04T05:00:00Z,26.2168,-96.4998,4.0,4.737858166,110.768728,6.16,'11111222,11111222,11111222' 
TABS,ioos:station:wmo:42045:1,2006-10-04T05:30:00Z,26.2168,-96.4998,4.0,4.950818114,88.95795484,6.16,'11111222,11111222,11111222' 
TABS,ioos:station:wmo:42045:1,2006-10-04T06:00:00Z,26.2168,-96.4998,4.0,5.78027681,80.43950496,7.6,'11111222,11111222,11111222' 
TABS,ioos:station:wmo:42045:1,2006-10-04T06:30:00Z,26.2168,-96.4998,4.0,1.9790907,255.9637894,4.27,'11111222,11111222,11111222' 
TABS,ioos:station:wmo:42045:1,2006-10-04T07:00:00Z,26.2168,-96.4998,4.0,3.121025473,91.4692182,4.8,'11111222,11111222,11111222' 
TABS,ioos:station:wmo:42045:1,2006-10-04T07:30:00Z,26.2168,-96.4998,4.0,4.10182886,99.11826235,5.64,'11111222,11111222,11111222' 
TABS,ioos:station:wmo:42045:1,2006-10-04T08:00:00Z,26.2168,-96.4998,4.0,5.515360369,66.03714614,7.76,'11111222,11111222,11111222' 
TABS,ioos:station:wmo:42045:1,2006-10-04T08:30:00Z,26.2168,-96.4998,4.0,4.629730014,71.09504745,5.82,'11111222,11111222,11111222' 
TABS,ioos:station:wmo:42045:1,2006-10-04T09:00:00Z,26.2168,-96.4998,4.0,4.400829467,69.79405624,5.44,'11111222,11111222,11111222' 
TABS,ioos:station:wmo:42045:1,2006-10-04T09:30:00Z,26.2168,-96.4998,4.0,5.242184659,96.3526677,7.76,'11111222,11111222,11111222' 
TABS,ioos:station:wmo:42045:1,2006-10-04T10:00:00Z,26.2168,-96.4998,4.0,4.372241988,105.6577737,6.71,'11111222,11111222,11111222' 
TABS,ioos:station:wmo:42045:1,2006-10-04T10:30:00Z,26.2168,-96.4998,4.0,5.635210733,108.6282405,7.19,'11111222,11111222,11111222' 
TABS,ioos:station:wmo:42045:1,2006-10-04T11:00:00Z,26.2168,-96.4998,4.0,5.14820357,108.5761019,6.56,'11111222,11111222,11111222' 
TABS,ioos:station:wmo:42045:1,2006-10-04T11:30:00Z,26.2168,-96.4998,4.0,5.924086427,114.7484837,7.37,'11111222,11111222,11111222' 
TABS,ioos:station:wmo:42045:1,2006-10-04T12:00:00Z,26.2168,-96.4998,4.0,5.954838369,114.9300657,7.4,'11111222,11111222,11111222' 
TABS,ioos:station:wmo:42045:1,2006-10-04T12:30:00Z,26.2168,-96.4998,4.0,5.937760521,112.8948699,7.73,'11111222,11111222,11111222' 
TABS,ioos:station:wmo:42045:1,2006-10-04T13:00:00Z,26.2168,-96.4998,4.0,6.020307301,111.5366873,7.62,'11111222,11111222,11111222' 
TABS,ioos:station:wmo:42045:1,2006-10-04T13:30:00Z,26.2168,-96.4998,4.0,6.764732072,118.2322732,8.32,'11111222,11111222,11111222' 
TABS,ioos:station:wmo:42045:1,2006-10-04T14:00:00Z,26.2168,-96.4998,4.0,8.349143669,137.0387917,10.18,'11111222,11111222,11111222' 
TABS,ioos:station:wmo:42045:1,2006-10-04T14:30:00Z,26.2168,-96.4998,4.0,7.90931729,139.5640142,9.64,'11111222,11111222,11111222' 
TABS,ioos:station:wmo:42045:1,2006-10-04T15:00:00Z,26.2168,-96.4998,4.0,7.936831862,141.5997982,9.71,'11111222,11111222,11111222' 
TABS,ioos:station:wmo:42045:1,2006-10-04T15:30:00Z,26.2168,-96.4998,4.0,6.563687988,147.569264,8.04,'11111222,11111222,11111222' 
TABS,ioos:station:wmo:42045:1,2006-10-04T16:00:00Z,26.2168,-96.4998,4.0,4.985709578,156.7262257,6.58,'11111222,11111222,11111222' 
TABS,ioos:station:wmo:42045:1,2006-10-04T16:30:00Z,26.2168,-96.4998,4.0,4.182307975,157.3593222,5.3,'11111222,11111222,11111222' 
TABS,ioos:station:wmo:42045:1,2006-10-04T17:00:00Z,26.2168,-96.4998,4.0,3.739050682,147.1177478,5.04,'11111222,11111222,11111222' 
TABS,ioos:station:wmo:42045:1,2006-10-04T17:30:00Z,26.2168,-96.4998,4.0,2.684864987,124.2231018,3.5,'11111222,11111222,11111222' 
TABS,ioos:station:wmo:42045:1,2006-10-04T18:00:00Z,26.2168,-96.4998,4.0,2.727874631,111.9577917,3.76,'11111222,11111222,11111222' 
TABS,ioos:station:wmo:42045:1,2006-10-04T18:30:00Z,26.2168,-96.4998,4.0,2.431810025,71.78819231,3.16,'11111222,11111222,11111222' 